Weather History for Bentonville, AR

Change the Weather History Date:

Tuesday, November 8, 2011

  Actual Average Record
Temperature  
Mean Temperature 60 °F -  
Max Temperature 66 °F 58 °F 80 °F (1963)
Min Temperature 53 °F 37 °F 11 °F (1991)
Degree Days  
Heating Degree Days 6    
Growing Degree Days 10 (Base 50)    
Moisture  
Dew Point 56 °F    
Average Humidity 91    
Maximum Humidity 94    
Minimum Humidity 78    
Precipitation  
Precipitation 3.49 in - - ()
Sea Level Pressure  
Sea Level Pressure 29.88 in    
Wind  
Wind Speed 11 mph (SE)    
Max Wind Speed 24 mph    
Max Gust Speed 30 mph    
Visibility 9 miles    
Events Thunderstorm    
Averages and records for this station are not official NWS values.
T = Trace of Precipitation, MM = Missing Value Source: NWS Daily Summary

Daily Weather History Graph

Daily Weather History Graph

Search for Another Location

Airport:

Trip Planner

Search our weather history database for the weather conditions in past years. The results will help you decide how hot, cold, wet, or windy it might be!

Date:

Astronomy

Nov. 08, 2011 Rise Set
Actual Time 6:46 AM CST 5:14 PM CST
Civil Twilight 6:19 AM CST 5:41 PM CST
Nautical Twilight 5:48 AM CST 6:11 PM CST
Astronomical Twilight 5:18 AM CST 6:42 PM CST
Moon 3:53 PM CST (11/8) 4:48 AM CST (11/8)
Length of Visible Light 11h 21m
Length of Day
10h 27m
Waxing Gibbous, 96% of the Moon is Illuminated
Nov 8
Waxing Gibbous
Nov 10
Full
Nov 18
Last Quarter
Nov 25
New
Dec 2
First Quarter

Hourly Weather History & Observations

Time (CST) Temp. Windchill Dew Point Humidity Pressure Visibility Wind Dir Wind Speed Gust Speed Precip Events Conditions
12:15 AM 66.2 °F - 59.0 °F 78% 29.89 in 10.0 mi South 18.4 mph 26.5 mph N/A   Overcast
12:35 AM 66.2 °F - 59.0 °F 78% 29.89 in 10.0 mi South 11.5 mph 26.5 mph N/A   Mostly Cloudy
12:55 AM 66.2 °F - 59.0 °F 78% 29.89 in 10.0 mi South 12.7 mph 26.5 mph N/A   Mostly Cloudy
1:15 AM 66.2 °F - 59.0 °F 78% 29.89 in 10.0 mi South 11.5 mph 20.7 mph N/A   Overcast
1:35 AM 66.2 °F - 59.0 °F 78% 29.88 in 10.0 mi South 15.0 mph 26.5 mph N/A   Overcast
1:55 AM 66.2 °F - 59.0 °F 78% 29.88 in 10.0 mi South 12.7 mph 19.6 mph N/A   Overcast
2:15 AM 64.4 °F - 60.8 °F 88% 29.91 in 10.0 mi SW 11.5 mph 21.9 mph 0.01 in   Mostly Cloudy
2:35 AM 60.8 °F - 55.4 °F 82% 29.93 in 5.0 mi WNW 17.3 mph 29.9 mph 0.35 in Thunderstorm Thunderstorm
3:15 AM 57.2 °F - 55.4 °F 94% 29.92 in 10.0 mi Calm Calm - 0.15 in Thunderstorm Overcast
3:35 AM 57.2 °F - 55.4 °F 94% 29.92 in 10.0 mi Calm Calm - 0.22 in Thunderstorm Thunderstorm
3:55 AM 57.2 °F - 55.4 °F 94% 29.91 in 9.0 mi ENE 5.8 mph - 0.27 in Thunderstorm Overcast
4:15 AM 57.2 °F - 55.4 °F 94% 29.92 in 8.0 mi East 4.6 mph - 0.04 in   Overcast
4:35 AM 57.2 °F - 55.4 °F 94% 29.92 in 7.0 mi East 4.6 mph - 0.08 in   Overcast
4:55 AM 57.2 °F - 55.4 °F 94% 29.93 in 7.0 mi East 4.6 mph - 0.14 in   Overcast
5:35 AM 57.2 °F - 55.4 °F 94% 29.93 in 3.0 mi SSE 5.8 mph - 0.20 in   Overcast
6:15 AM 57.2 °F - 55.4 °F 94% 29.94 in 10.0 mi SE 11.5 mph - 0.06 in   Mostly Cloudy
6:35 AM 57.2 °F - 55.4 °F 94% 29.93 in 8.0 mi ESE 9.2 mph - 0.14 in   Overcast
6:55 AM 57.2 °F - 55.4 °F 94% 29.94 in 5.0 mi SE 6.9 mph - 0.26 in   Mostly Cloudy
7:15 AM 57.2 °F - 55.4 °F 94% 29.94 in 5.0 mi SE 8.1 mph - 0.14 in   Mostly Cloudy
7:35 AM 57.2 °F - 55.4 °F 94% 29.94 in 6.0 mi ESE 10.4 mph - 0.19 in   Mostly Cloudy
8:15 AM 57.2 °F - 55.4 °F 94% 29.95 in 5.0 mi ESE 11.5 mph - 0.05 in   Overcast
8:35 AM 57.2 °F - 55.4 °F 94% 29.94 in 7.0 mi ESE 6.9 mph - 0.10 in   Overcast
8:55 AM 57.2 °F - 55.4 °F 94% 29.95 in 9.0 mi ESE 8.1 mph - 0.16 in   Overcast
9:15 AM 57.2 °F - 55.4 °F 94% 29.95 in 1.8 mi East 8.1 mph - 0.35 in   Overcast
9:35 AM 57.2 °F - 55.4 °F 94% 29.95 in 1.8 mi East 6.9 mph - 0.74 in   Overcast
9:55 AM 57.2 °F - 55.4 °F 94% 29.96 in 1.8 mi ESE 11.5 mph - 1.15 in   Overcast
10:15 AM 57.2 °F - 55.4 °F 94% 29.94 in 9.0 mi East 11.5 mph - 0.22 in Thunderstorm Thunderstorm
10:35 AM 57.2 °F - 55.4 °F 94% 29.94 in 10.0 mi East 10.4 mph - 0.31 in Thunderstorm Thunderstorm
10:55 AM 57.2 °F - 55.4 °F 94% 29.95 in 8.0 mi ENE 9.2 mph - 0.43 in Thunderstorm Overcast
11:15 AM 57.2 °F - 55.4 °F 94% 29.97 in 6.0 mi SSE 4.6 mph - 0.09 in Thunderstorm Overcast
11:35 AM 57.2 °F - 55.4 °F 94% 29.91 in 10.0 mi East 13.8 mph 19.6 mph 0.19 in Thunderstorm Thunderstorm
11:55 AM 57.2 °F - 55.4 °F 94% 29.89 in 10.0 mi East 17.3 mph 23.0 mph 0.29 in   Overcast
12:15 PM 57.2 °F - 55.4 °F 94% 29.81 in 9.0 mi East 24.2 mph 28.8 mph 0.04 in   Mostly Cloudy
12:35 PM 57.2 °F - 55.4 °F 94% 29.83 in 10.0 mi ESE 11.5 mph 19.6 mph 0.05 in   Overcast
12:55 PM 57.2 °F - 55.4 °F 94% 29.86 in 10.0 mi SE 15.0 mph - 0.05 in Thunderstorm Overcast
1:15 PM 57.2 °F - 55.4 °F 94% 29.83 in 10.0 mi ESE 15.0 mph 18.4 mph N/A   Mostly Cloudy
1:35 PM 57.2 °F - 55.4 °F 94% 29.82 in 10.0 mi SE 13.8 mph 19.6 mph N/A   Overcast
2:15 PM 59.0 °F - 55.4 °F 88% 29.80 in 10.0 mi SE 11.5 mph 18.4 mph N/A   Overcast
2:35 PM 59.0 °F - 55.4 °F 88% 29.80 in 10.0 mi SE 11.5 mph - N/A   Overcast
3:15 PM 59.0 °F - 57.2 °F 94% 29.79 in 10.0 mi SE 8.1 mph - N/A   Mostly Cloudy
3:35 PM 59.0 °F - 57.2 °F 94% 29.79 in 10.0 mi SSE 9.2 mph - N/A   Overcast
3:55 PM 59.0 °F - 57.2 °F 94% 29.80 in 10.0 mi SSE 8.1 mph - N/A   Overcast
4:15 PM 60.8 °F - 57.2 °F 88% 29.80 in 10.0 mi SSE 8.1 mph - N/A   Overcast
4:35 PM 60.8 °F - 57.2 °F 88% 29.79 in 10.0 mi SSE 8.1 mph - N/A   Overcast
4:55 PM 60.8 °F - 57.2 °F 88% 29.81 in 10.0 mi South 5.8 mph - N/A   Overcast
5:15 PM 60.8 °F - 57.2 °F 88% 29.81 in 10.0 mi South 3.5 mph - N/A   Overcast
5:35 PM 60.8 °F - 57.2 °F 88% 29.82 in 10.0 mi South 3.5 mph - N/A   Overcast
5:55 PM 60.8 °F - 57.2 °F 88% 29.83 in 10.0 mi South 3.5 mph - N/A   Overcast
6:15 PM 60.8 °F - 57.2 °F 88% 29.83 in 10.0 mi SSE 6.9 mph - N/A   Mostly Cloudy
6:35 PM 57.2 °F - 55.4 °F 94% 29.83 in 10.0 mi South 3.5 mph - N/A   Partly Cloudy
6:55 PM 57.2 °F - 55.4 °F 94% 29.83 in 10.0 mi Calm Calm - N/A   Clear
7:15 PM 57.2 °F - 55.4 °F 94% 29.83 in 10.0 mi SSW 4.6 mph - N/A   Partly Cloudy
7:35 PM 57.2 °F - 55.4 °F 94% 29.83 in 10.0 mi SSW 5.8 mph - N/A   Scattered Clouds
7:55 PM 57.2 °F - 55.4 °F 94% 29.84 in 10.0 mi WSW 15.0 mph 24.2 mph N/A   Mostly Cloudy
8:15 PM 55.4 °F - 53.6 °F 94% 29.84 in 10.0 mi WSW 16.1 mph 24.2 mph N/A   Overcast
8:35 PM 55.4 °F - 51.8 °F 88% 29.85 in 10.0 mi West 10.4 mph 20.7 mph N/A   Overcast
8:55 PM 53.6 °F - 50.0 °F 88% 29.87 in 10.0 mi WSW 18.4 mph 27.6 mph N/A   Overcast
9:15 PM 53.6 °F - 48.2 °F 82% 29.87 in 10.0 mi WSW 17.3 mph 24.2 mph N/A   Overcast
9:35 PM 51.8 °F - 46.4 °F 82% 29.89 in 10.0 mi WSW 18.4 mph - N/A   Overcast
9:55 PM 51.8 °F - 46.4 °F 82% 29.89 in 10.0 mi WSW 18.4 mph 24.2 mph N/A   Overcast
10:15 PM 50.0 °F - 44.6 °F 82% 29.89 in 10.0 mi WSW 17.3 mph 24.2 mph N/A   Overcast
10:35 PM 50.0 °F - 44.6 °F 82% 29.89 in 10.0 mi WSW 13.8 mph 19.6 mph N/A   Overcast
10:55 PM 50.0 °F - 44.6 °F 82% 29.90 in 10.0 mi West 15.0 mph 19.6 mph N/A   Overcast
11:15 PM 48.2 °F - 42.8 °F 82% 29.91 in 10.0 mi West 19.6 mph 24.2 mph N/A   Overcast
11:35 PM 48.2 °F - 44.6 °F 87% 29.91 in 7.0 mi WSW 13.8 mph 19.6 mph N/A   Overcast
11:55 PM 46.4 °F 40.4 °F 44.6 °F 93% 29.91 in 7.0 mi West 13.8 mph 19.6 mph N/A   Overcast